Tracking 17886 objects as of 8-December-2016
HD Live streaming from Space Station
objects crossing your sky now

BREEZE-M DEB

Track BREEZE-M DEB now!
10-day predictions


NORAD ID: 34250
Int'l Code: 2006-006BR
Perigee: -6,371.0 km
Apogee: -6,371.0 km
Inclination: 51.7 °
Period: 0.0 minutes
Semi major axis: 0 km
RCS: 0.0694 m2 (small)
Launch date: February 28, 2006
Source: Commonwealth of Independent States (former USSR) (CIS)
Launch site: TYURATAM MISSILE AND SPACE COMPLEX (TTMTR)

Note: This is SATELLITE DEBRIS
Your satellite tracking list
Your tracking list is empty





NASA's NSSDC Master Catalog

Two Line Element Set (TLE):
1 34250U 06006BR  16339.91046644 +.00000195 +00000-0 +18712-3 0  9999
2 34250 051.6733 180.4482 5102812 291.6483 022.6566 05.24625151171838
Source of the keplerian elements: AFSPC